Regional Weather Roundup
Issued by NWS

Home | Current Version | Previous Version | Graphics & Text | Print | Product List | Glossary On
Versions: 1 2 3 4 5 6 7 8 9 10 11 12 13 14 15 16 17 18 19 20 21 22 23 24 25 26 27 28 29 30 31 32 33 34 35 36 37 38 39 40 41 42 43 44 45 46 47 48 49 50
000
ASUS43 KDTX 201701
RWRMI
MICHIGAN HOURLY REGIONAL WEATHER ROUNDUP
NATIONAL WEATHER SERVICE DETROIT/PONTIAC MI
1200 PM EST TUE FEB 20 2018

NOTE: "FAIR" INDICATES FEW OR NO CLOUDS BELOW 12,000 FEET WITH NO
SIGNIFICANT WEATHER AND/OR OBSTRUCTION TO VISIBILITY.

MIZ047>049-052>055-059>063-066>070-074>076-081>083-201800-
SOUTHEAST LOWER MICHIGAN

CITY           SKY/WX    TMP DP  RH WIND       PRES   REMARKS
ADRIAN         LGT RAIN  59  57  93 SW20G25   30.01S
ANN ARBOR      LGT RAIN  57  57 100 S10       29.99R FOG
BAD AXE        LGT RAIN  55  55 100 SW8       29.91F
CARO           CLOUDY    58  57  97 S10       29.92S
DETROIT CITY   LGT RAIN  59  57  93 SW18G25   29.99S FOG
DETROIT        LGT RAIN  61  58  90 SW23G30   30.00R
FLINT          LGT RAIN  57  57 100 SW8       29.94S
GROSSE ILE     LGT RAIN  46  45  98 S13       30.01S VSB<1/4
HILLSDALE      LGT RAIN  59  55  88 S13G18    29.99R
HOWELL         RAIN      58  57  97 SW5       29.96R

CITY           SKY/WX    TMP DP  RH WIND       PRES   REMARKS
JACKSON        LGT RAIN  61  59  93 SW15      29.97R
LAMBERTVILLE   DRIZZLE   61  58  91 SW10G20   30.02S
LANSING        LGT RAIN  59  58  96 SW14      29.94S FOG
LAPEER         DRIZZLE   58  58  97 SW8       29.95R
MASON          RAIN      58  55  88 CALM      29.96S
MT. CLEMENS    LGT RAIN  58  58 100 S15       29.96S FOG
PONTIAC        LGT RAIN  58  57  97 SW14G22   29.95S FOG
PORT HOPE        N/A     57  55  93 S5        29.87F
PORT HURON     LGT RAIN  55  54  94 S14G21    29.97S
TRI CITIES     CLOUDY    57  55  93 S12       29.91S
MIDLAND        CLOUDY    57  57 100 S7        29.89R
TROY           LGT RAIN  60  58  92 SW15G28   29.99S
SAGINAW HB     PTSUNNY   57  55  94 S13       29.90S
$$
MIZ043>046-050>051-056>058-064>065-071>073-077>080-201800-
SOUTHWEST LOWER MICHIGAN

CITY           SKY/WX    TMP DP  RH WIND       PRES   REMARKS
BATTLE CREEK   LGT RAIN  60  58  92 SW12      29.95R FOG
BENTON HARBOR  CLOUDY    63  59  87 S10       29.90S
BIG RAPIDS     CLOUDY    54  52  92 SW7       29.87R
COLDWATER      RAIN      61  61 100 SW14G22   29.97R
FREMONT        RAIN      51  50  97 S7        29.86F
HOLLAND        CLOUDY    58  55  90 SW10      29.89F
GRAND RAPIDS   LGT RAIN  59  58  96 S10       29.90F FOG
IONIA          RAIN      57  57 100 SW7       29.91S
KALAMAZOO      LGT RAIN  62  59  90 S8        29.94S FOG
LUDINGTON      CLOUDY    47  46  99 S3        29.83S
MARSHALL       HVY RAIN  60  59  98 SW13G20   29.95R
MOUNT PLEASANT CLOUDY    57  56  97 SW7       29.88R
MUSKEGON       LGT RAIN  51  49  92 S9        29.88F VSB 1/2
SOUTH HAVEN    CLOUDY    61  59  92 S8        29.90S
$$
MIZ016>042-201800-
NORTHERN LOWER MICHIGAN

CITY           SKY/WX    TMP DP  RH WIND       PRES   REMARKS
ALPENA         CLOUDY    36  35  96 CALM      29.84F
BEAVER ISLAND  CLOUDY    36  35  99 E5        29.78S WCI  32
BELLAIRE       FAIR      49  49 100 S5        29.80S
CADILLAC       CLOUDY    51  51  99 SW14      29.83R
CHARLEVOIX     FAIR      45  45 100 S7        29.80S
FRANKFORT      CLOUDY    50  47  92 S5        29.77F
GAYLORD        FAIR      44  44 100 S10       29.80R
GRAYLING       FOG       43  43 100 CALM      29.82R VSB 1/4
HARBOR SPRINGS CLOUDY    34  33  98 E7        29.79R WCI  28
HOUGHTON LAKE  CLOUDY    53  53 100 S8        29.84S
MANISTEE       PTSUNNY   49  47  93 S9        29.80F
OSCODA         FOG       48  48  98 SW8       29.85F VSB 1/4
PELLSTON       CLOUDY    33  32  96 SE6       29.80F WCI  28
ROGERS CITY    CLOUDY    32  32  99 CALM      29.84F FOG
TRAVERSE CITY  PTSUNNY   54  48  80 SW7       29.79R
$$
MIZ007>008-015-201800-
EASTERN UPPER MICHIGAN

CITY           SKY/WX    TMP DP  RH WIND       PRES   REMARKS
KINROSS        FLURRIES  25  24  96 SE7       29.83S WCI  17
MACKINAC ISLAN CLOUDY    30  30 100 E10G21    29.79S WCI  21
NEWBERRY       CLOUDY    28  28  96 SE7       29.76F WCI  21
S. S. MARIE    CLOUDY    24  22  91 VRB6      29.84F WCI  17
MUNISING         N/A     28  27  96 N5        29.77F WCI  23
$$
MIZ004>006-011>014-085-201800-
CENTRAL UPPER MICHIGAN

CITY           SKY/WX    TMP DP  RH WIND       PRES   REMARKS
MANISTIQUE     FOG       32  30  94 SE12      29.77R VSB 1/2 WCI  23
ESCANABA       FOG       29  27  92 NW6       29.78R VSB 3/4 WCI  23
MENOMINEE      CLOUDY    33  31  92 CALM      29.80
SAWYER-GWINN   CLOUDY    23  21  93 CALM      29.76S FOG
$$
MIZ001>003-009>011-084-201800-
WESTERN UPPER MICHIGAN

CITY           SKY/WX    TMP DP  RH WIND       PRES   REMARKS
IRON MOUNTAIN  CLOUDY    27  26  96 CALM      29.75S FOG
HOUGHTON       CLOUDY    26  23  88 SE8       29.74S FOG     WCI  18
COPPER HARBOR    N/A     26  23  88 SE5       29.80F WCI  20
IRONWOOD       CLOUDY    22  18  85 W7        29.79S FOG     WCI  13
$$

ABBREVIATIONS USED IN REMARKS
   TC - TEMPERATURE IN CELSIUS
  WCI - WIND CHILL INDEX
   HX - HEAT INDEX
  VSB - VISIBILITY




USA.gov is the U.S. government's official web portal to all federal, state and local government web resources and services.